Year,Month,Day,Hour,Minute,Value (Times are PST for windspeed in km/hr)
2006,12,17,00,00,5.40
2006,12,17,00,01,4.80
2006,12,17,00,02,4.80
2006,12,17,00,03,6.00
2006,12,17,00,04,6.60
2006,12,17,00,05,5.10
2006,12,17,00,06,5.10
2006,12,17,00,07,5.80
2006,12,17,00,08,6.90
2006,12,17,00,09,8.00
2006,12,17,00,10,8.00
2006,12,17,00,11,9.40
2006,12,17,00,12,6.00
2006,12,17,00,13,7.10
2006,12,17,00,14,9.30
2006,12,17,00,15,8.00
2006,12,17,00,16,6.50
2006,12,17,00,17,8.80
2006,12,17,00,18,6.00
2006,12,17,00,19,6.20
2006,12,17,00,20,4.20
2006,12,17,00,21,6.30
2006,12,17,00,22,5.00
2006,12,17,00,23,5.50
2006,12,17,00,24,4.80
2006,12,17,00,25,4.30
2006,12,17,00,26,5.60
2006,12,17,00,27,6.40
2006,12,17,00,28,5.90
2006,12,17,00,29,6.90
2006,12,17,00,30,5.80
2006,12,17,00,31,5.30
2006,12,17,00,32,5.20
2006,12,17,00,33,5.30
2006,12,17,00,34,4.40
2006,12,17,00,35,1.90
2006,12,17,00,36,2.70
2006,12,17,00,37,3.70
2006,12,17,00,38,2.60
2006,12,17,00,39,4.10
2006,12,17,00,40,3.00
2006,12,17,00,41,3.30
2006,12,17,00,42,3.80
2006,12,17,00,43,3.70
2006,12,17,00,44,4.50
2006,12,17,00,45,4.50
2006,12,17,00,46,5.30
2006,12,17,00,47,5.20
2006,12,17,00,48,4.60
2006,12,17,00,49,5.80
2006,12,17,00,50,5.10
2006,12,17,00,51,5.70
2006,12,17,00,52,6.40
2006,12,17,00,53,6.40
2006,12,17,00,54,6.40
2006,12,17,00,55,6.40
2006,12,17,00,56,6.00
2006,12,17,00,57,4.00
2006,12,17,00,58,5.00
2006,12,17,00,59,5.60
2006,12,17,01,00,4.40
2006,12,17,01,01,4.60
2006,12,17,01,02,5.00
2006,12,17,01,03,5.50
2006,12,17,01,04,5.70
2006,12,17,01,05,5.20
2006,12,17,01,06,5.80
2006,12,17,01,07,5.30
2006,12,17,01,08,4.60
2006,12,17,01,09,3.60
2006,12,17,01,10,5.00
2006,12,17,01,11,4.70
2006,12,17,01,12,4.60
2006,12,17,01,13,5.00
2006,12,17,01,14,6.10
2006,12,17,01,15,6.10
2006,12,17,01,16,7.60
2006,12,17,01,17,6.10
2006,12,17,01,18,6.20
2006,12,17,01,19,6.60
2006,12,17,01,20,6.30
2006,12,17,01,21,6.70
2006,12,17,01,22,6.10
2006,12,17,01,23,5.40
2006,12,17,01,24,5.00
2006,12,17,01,25,7.00
2006,12,17,01,26,5.20
2006,12,17,01,27,6.20
2006,12,17,01,28,4.60
2006,12,17,01,29,6.30
2006,12,17,01,30,7.60
2006,12,17,01,31,6.40
2006,12,17,01,32,6.30
2006,12,17,01,33,4.20
2006,12,17,01,34,6.90
2006,12,17,01,35,3.50
2006,12,17,01,36,4.40
2006,12,17,01,37,4.40
2006,12,17,01,38,3.80
2006,12,17,01,39,4.50
2006,12,17,01,40,3.30
2006,12,17,01,41,3.20
2006,12,17,01,42,3.10
2006,12,17,01,43,2.80
2006,12,17,01,44,0.90
2006,12,17,01,45,2.20
2006,12,17,01,46,2.00
2006,12,17,01,47,1.50
2006,12,17,01,48,1.60
2006,12,17,01,49,2.80
2006,12,17,01,50,4.40
2006,12,17,01,51,4.40
2006,12,17,01,52,5.00
2006,12,17,01,53,9.30
2006,12,17,01,54,6.60
2006,12,17,01,55,6.20
2006,12,17,01,56,5.70
2006,12,17,01,57,4.40
2006,12,17,01,58,6.80
2006,12,17,01,59,8.10
2006,12,17,02,00,10.90
2006,12,17,02,01,8.20
2006,12,17,02,02,11.20
2006,12,17,02,03,10.40
2006,12,17,02,04,9.00
2006,12,17,02,05,8.40
2006,12,17,02,06,6.10
2006,12,17,02,07,5.40
2006,12,17,02,08,4.30
2006,12,17,02,09,7.40
2006,12,17,02,10,7.40
2006,12,17,02,11,8.00
2006,12,17,02,12,7.40
2006,12,17,02,13,6.40
2006,12,17,02,14,6.70
2006,12,17,02,15,4.40
2006,12,17,02,16,5.20
2006,12,17,02,17,4.30
2006,12,17,02,18,4.40
2006,12,17,02,19,7.10
2006,12,17,02,20,6.20
2006,12,17,02,21,5.70
2006,12,17,02,22,5.00
2006,12,17,02,23,5.50
2006,12,17,02,24,6.60
2006,12,17,02,25,6.30
2006,12,17,02,26,6.00
2006,12,17,02,27,4.70
2006,12,17,02,28,5.20
2006,12,17,02,29,4.00
2006,12,17,02,30,3.20
2006,12,17,02,31,2.00
2006,12,17,02,32,5.40
2006,12,17,02,33,4.90
2006,12,17,02,34,5.10
2006,12,17,02,35,4.00
2006,12,17,02,36,4.30
2006,12,17,02,37,5.20
2006,12,17,02,38,4.10
2006,12,17,02,39,5.30
2006,12,17,02,40,7.30
2006,12,17,02,41,7.80
2006,12,17,02,42,4.50
2006,12,17,02,43,4.40
2006,12,17,02,44,4.20
2006,12,17,02,45,4.30
2006,12,17,02,46,4.80
2006,12,17,02,47,7.10
2006,12,17,02,48,5.20
2006,12,17,02,49,4.90
2006,12,17,02,50,4.40
2006,12,17,02,51,5.80
2006,12,17,02,52,4.60
2006,12,17,02,53,5.00
2006,12,17,02,54,5.40
2006,12,17,02,55,5.00
2006,12,17,02,56,5.50
2006,12,17,02,57,7.20
2006,12,17,02,58,8.60
2006,12,17,02,59,5.50
2006,12,17,03,00,3.90
2006,12,17,03,01,4.80
2006,12,17,03,02,5.10
2006,12,17,03,03,5.70
2006,12,17,03,04,7.60
2006,12,17,03,05,4.40
2006,12,17,03,06,4.70
2006,12,17,03,07,2.50
2006,12,17,03,08,4.10
2006,12,17,03,09,4.10
2006,12,17,03,10,5.10
2006,12,17,03,11,7.40
2006,12,17,03,12,6.40
2006,12,17,03,13,6.40
2006,12,17,03,14,6.90
2006,12,17,03,15,7.80
2006,12,17,03,16,9.10
2006,12,17,03,17,5.60
2006,12,17,03,18,4.60
2006,12,17,03,19,9.20
2006,12,17,03,20,5.90
2006,12,17,03,21,7.20
2006,12,17,03,22,6.60
2006,12,17,03,23,9.00
2006,12,17,03,24,7.70
2006,12,17,03,25,9.20
2006,12,17,03,26,5.70
2006,12,17,03,27,7.50
2006,12,17,03,28,7.80
2006,12,17,03,29,7.80
2006,12,17,03,30,8.10
2006,12,17,03,31,7.40
2006,12,17,03,32,4.70
2006,12,17,03,33,5.60
2006,12,17,03,34,3.40
2006,12,17,03,35,3.80
2006,12,17,03,36,7.60
2006,12,17,03,37,6.90
2006,12,17,03,38,5.40
2006,12,17,03,39,7.20
2006,12,17,03,40,6.20
2006,12,17,03,41,8.60
2006,12,17,03,42,8.50
2006,12,17,03,43,7.80
2006,12,17,03,44,8.30
2006,12,17,03,45,6.70
2006,12,17,03,46,10.50
2006,12,17,03,47,7.00
2006,12,17,03,48,7.20
2006,12,17,03,49,8.50
2006,12,17,03,50,7.20
2006,12,17,03,51,6.10
2006,12,17,03,52,5.70
2006,12,17,03,53,3.80
2006,12,17,03,54,4.90
2006,12,17,03,55,6.10
2006,12,17,03,56,4.50
2006,12,17,03,57,3.20
2006,12,17,03,58,3.30
2006,12,17,03,59,7.00
2006,12,17,04,00,4.60
2006,12,17,04,01,4.90
2006,12,17,04,02,5.20
2006,12,17,04,03,3.80
2006,12,17,04,04,4.10
2006,12,17,04,05,4.50
2006,12,17,04,06,3.90
2006,12,17,04,07,3.40
2006,12,17,04,08,5.40
2006,12,17,04,09,5.30
2006,12,17,04,10,3.50
2006,12,17,04,11,2.60
2006,12,17,04,12,1.70
2006,12,17,04,13,2.40
2006,12,17,04,14,3.00
2006,12,17,04,15,3.10
2006,12,17,04,16,2.90
2006,12,17,04,17,3.20
2006,12,17,04,18,2.80
2006,12,17,04,19,1.40
2006,12,17,04,20,2.30
2006,12,17,04,21,2.90
2006,12,17,04,22,2.50
2006,12,17,04,23,2.70
2006,12,17,04,24,4.00
2006,12,17,04,25,5.10
2006,12,17,04,26,4.80
2006,12,17,04,27,4.80
2006,12,17,04,28,3.70
2006,12,17,04,29,3.60
2006,12,17,04,30,2.90
2006,12,17,04,31,3.30
2006,12,17,04,32,2.00
2006,12,17,04,33,2.50
2006,12,17,04,34,2.00
2006,12,17,04,35,1.50
2006,12,17,04,36,3.00
2006,12,17,04,37,2.40
2006,12,17,04,38,2.90
2006,12,17,04,39,1.50
2006,12,17,04,40,2.20
2006,12,17,04,41,1.10
2006,12,17,04,42,0.30
2006,12,17,04,43,0.10
2006,12,17,04,44,0.50
2006,12,17,04,45,1.50
2006,12,17,04,46,2.10
2006,12,17,04,47,1.10
2006,12,17,04,48,1.90
2006,12,17,04,49,2.70
2006,12,17,04,50,2.10
2006,12,17,04,51,1.00
2006,12,17,04,52,1.10
2006,12,17,04,53,2.00
2006,12,17,04,54,2.00
2006,12,17,04,55,0.70
2006,12,17,04,56,1.80
2006,12,17,04,57,1.50
2006,12,17,04,58,2.60
2006,12,17,04,59,2.30
2006,12,17,05,00,2.40
2006,12,17,05,01,2.10
2006,12,17,05,02,2.50
2006,12,17,05,03,2.60
2006,12,17,05,04,2.40
2006,12,17,05,05,1.70
2006,12,17,05,06,1.80
2006,12,17,05,07,2.10
2006,12,17,05,08,2.50
2006,12,17,05,09,3.10
2006,12,17,05,10,2.70
2006,12,17,05,11,1.80
2006,12,17,05,12,0.40
2006,12,17,05,13,0.90
2006,12,17,05,14,0.40
2006,12,17,05,15,1.70
2006,12,17,05,16,2.10
2006,12,17,05,17,2.70
2006,12,17,05,18,2.80
2006,12,17,05,19,2.70
2006,12,17,05,20,2.80
2006,12,17,05,21,3.10
2006,12,17,05,22,3.30
2006,12,17,05,23,4.50
2006,12,17,05,24,4.10
2006,12,17,05,25,3.30
2006,12,17,05,26,3.60
2006,12,17,05,27,3.50
2006,12,17,05,28,4.00
2006,12,17,05,29,3.70
2006,12,17,05,30,3.20
2006,12,17,05,31,3.20
2006,12,17,05,32,3.60
2006,12,17,05,33,4.80
2006,12,17,05,34,4.80
2006,12,17,05,35,3.50
2006,12,17,05,36,2.60
2006,12,17,05,37,3.10
2006,12,17,05,38,2.20
2006,12,17,05,39,2.20
2006,12,17,05,40,1.20
2006,12,17,05,41,1.00
2006,12,17,05,42,1.50
2006,12,17,05,43,0.20
2006,12,17,05,44,0.00
2006,12,17,05,45,0.00
2006,12,17,05,46,0.00
2006,12,17,05,47,0.00
2006,12,17,05,48,0.00
2006,12,17,05,49,0.00
2006,12,17,05,50,0.00
2006,12,17,05,51,0.00
2006,12,17,05,52,0.20
2006,12,17,05,53,0.10
2006,12,17,05,54,0.00
2006,12,17,05,55,1.00
2006,12,17,05,56,1.50
2006,12,17,05,57,0.60
2006,12,17,05,58,1.80
2006,12,17,05,59,3.40
2006,12,17,06,00,3.10
2006,12,17,06,01,2.40
2006,12,17,06,02,2.50
2006,12,17,06,03,1.10
2006,12,17,06,04,1.50
2006,12,17,06,05,0.00
2006,12,17,06,06,0.10
2006,12,17,06,07,0.00
2006,12,17,06,08,0.10
2006,12,17,06,09,0.50
2006,12,17,06,10,0.00
2006,12,17,06,11,0.00
2006,12,17,06,12,0.00
2006,12,17,06,13,0.00
2006,12,17,06,14,0.00
2006,12,17,06,15,0.80
2006,12,17,06,16,0.30
2006,12,17,06,17,0.10
2006,12,17,06,18,0.00
2006,12,17,06,19,0.10
2006,12,17,06,20,0.00
2006,12,17,06,21,1.00
2006,12,17,06,22,2.20
2006,12,17,06,23,2.60
2006,12,17,06,24,3.10
2006,12,17,06,25,3.50
2006,12,17,06,26,3.80
2006,12,17,06,27,4.60
2006,12,17,06,28,6.70
2006,12,17,06,29,6.20
2006,12,17,06,30,6.60
2006,12,17,06,31,4.70
2006,12,17,06,32,4.50
2006,12,17,06,33,4.10
2006,12,17,06,34,5.60
2006,12,17,06,35,5.00
2006,12,17,06,36,3.90
2006,12,17,06,37,4.80
2006,12,17,06,38,5.20
2006,12,17,06,39,5.00
2006,12,17,06,40,4.60
2006,12,17,06,41,3.60
2006,12,17,06,42,2.20
2006,12,17,06,43,2.70
2006,12,17,06,44,2.50
2006,12,17,06,45,3.10
2006,12,17,06,46,2.40
2006,12,17,06,47,1.40
2006,12,17,06,48,2.00
2006,12,17,06,49,1.80
2006,12,17,06,50,2.90
2006,12,17,06,51,3.30
2006,12,17,06,52,3.70
2006,12,17,06,53,3.20
2006,12,17,06,54,4.10
2006,12,17,06,55,4.70
2006,12,17,06,56,4.60
2006,12,17,06,57,4.30
2006,12,17,06,58,5.20
2006,12,17,06,59,4.70
2006,12,17,07,00,4.50
2006,12,17,07,01,4.30
2006,12,17,07,02,4.10
2006,12,17,07,03,3.90
2006,12,17,07,04,4.10
2006,12,17,07,05,4.80
2006,12,17,07,06,3.90
2006,12,17,07,07,3.40
2006,12,17,07,08,2.30
2006,12,17,07,09,1.20
2006,12,17,07,10,0.10
2006,12,17,07,11,0.10
2006,12,17,07,12,0.00
2006,12,17,07,13,0.00
2006,12,17,07,14,1.50
2006,12,17,07,15,1.80
2006,12,17,07,16,2.30
2006,12,17,07,17,3.40
2006,12,17,07,18,3.20
2006,12,17,07,19,3.10
2006,12,17,07,20,2.70
2006,12,17,07,21,2.40
2006,12,17,07,22,2.00
2006,12,17,07,23,2.40
2006,12,17,07,24,1.70
2006,12,17,07,25,1.00
2006,12,17,07,26,2.10
2006,12,17,07,27,1.60
2006,12,17,07,28,1.90
2006,12,17,07,29,2.00
2006,12,17,07,30,2.00
2006,12,17,07,31,2.10
2006,12,17,07,32,2.50
2006,12,17,07,33,2.90
2006,12,17,07,34,2.70
2006,12,17,07,35,2.80
2006,12,17,07,36,3.20
2006,12,17,07,37,3.60
2006,12,17,07,38,4.00
2006,12,17,07,39,4.10
2006,12,17,07,40,3.90
2006,12,17,07,41,3.60
2006,12,17,07,42,3.10
2006,12,17,07,43,2.70
2006,12,17,07,44,2.10
2006,12,17,07,45,1.10
2006,12,17,07,46,2.20
2006,12,17,07,47,1.90
2006,12,17,07,48,1.50
2006,12,17,07,49,3.10
2006,12,17,07,50,2.80
2006,12,17,07,51,3.20
2006,12,17,07,52,3.00
2006,12,17,07,53,1.80
2006,12,17,07,54,2.20
2006,12,17,07,55,0.90
2006,12,17,07,56,1.00
2006,12,17,07,57,1.50
2006,12,17,07,58,0.70
2006,12,17,07,59,1.70
2006,12,17,08,00,1.50
2006,12,17,08,01,0.70
2006,12,17,08,02,0.10
2006,12,17,08,03,0.60
2006,12,17,08,04,1.00
2006,12,17,08,05,0.40
2006,12,17,08,06,0.50
2006,12,17,08,07,0.40
2006,12,17,08,08,0.50
2006,12,17,08,09,0.90
2006,12,17,08,10,1.40
2006,12,17,08,11,2.10
2006,12,17,08,12,2.40
2006,12,17,08,13,2.70
2006,12,17,08,14,2.70
2006,12,17,08,15,2.70
2006,12,17,08,16,2.50
2006,12,17,08,17,2.70
2006,12,17,08,18,2.30
2006,12,17,08,19,2.60
2006,12,17,08,20,2.40
2006,12,17,08,21,2.90
2006,12,17,08,22,2.80
2006,12,17,08,23,2.50
2006,12,17,08,24,2.30
2006,12,17,08,25,2.90
2006,12,17,08,26,2.10
2006,12,17,08,27,0.60
2006,12,17,08,28,1.10
2006,12,17,08,29,1.30
2006,12,17,08,30,0.70
2006,12,17,08,31,0.40
2006,12,17,08,32,0.10
2006,12,17,08,33,0.20
2006,12,17,08,34,0.00
2006,12,17,08,35,0.10
2006,12,17,08,36,0.00
2006,12,17,08,37,0.00
2006,12,17,08,38,0.00
2006,12,17,08,39,0.00
2006,12,17,08,40,0.00
2006,12,17,08,41,0.00
2006,12,17,08,42,0.00
2006,12,17,08,43,0.00
2006,12,17,08,44,1.30
2006,12,17,08,45,1.00
2006,12,17,08,46,0.20
2006,12,17,08,47,1.50
2006,12,17,08,48,1.50
2006,12,17,08,49,0.60
2006,12,17,08,50,1.10
2006,12,17,08,51,0.90
2006,12,17,08,52,0.60
2006,12,17,08,53,0.80
2006,12,17,08,54,1.30
2006,12,17,08,55,1.20
2006,12,17,08,56,2.50
2006,12,17,08,57,1.10
2006,12,17,08,58,1.60
2006,12,17,08,59,1.50
2006,12,17,09,00,1.00
2006,12,17,09,01,1.10
2006,12,17,09,02,1.30
2006,12,17,09,03,1.60
2006,12,17,09,04,1.60
2006,12,17,09,05,1.20
2006,12,17,09,06,0.90
2006,12,17,09,07,0.90
2006,12,17,09,08,0.80
2006,12,17,09,09,0.60
2006,12,17,09,10,1.40
2006,12,17,09,11,1.10
2006,12,17,09,12,3.00
2006,12,17,09,13,2.50
2006,12,17,09,14,3.90
2006,12,17,09,15,4.10
2006,12,17,09,16,3.40
2006,12,17,09,17,4.10
2006,12,17,09,18,3.60
2006,12,17,09,19,3.10
2006,12,17,09,20,2.90
2006,12,17,09,21,2.00
2006,12,17,09,22,2.00
2006,12,17,09,23,3.30
2006,12,17,09,24,2.80
2006,12,17,09,25,3.60
2006,12,17,09,26,3.50
2006,12,17,09,27,4.30
2006,12,17,09,28,3.80
2006,12,17,09,29,4.20
2006,12,17,09,30,2.10
2006,12,17,09,31,3.00
2006,12,17,09,32,4.50
2006,12,17,09,33,2.50
2006,12,17,09,34,2.70
2006,12,17,09,35,2.60
2006,12,17,09,36,3.90
2006,12,17,09,37,2.70
2006,12,17,09,38,2.50
2006,12,17,09,39,4.10
2006,12,17,09,40,4.80
2006,12,17,09,41,4.80
2006,12,17,09,42,4.80
2006,12,17,09,43,4.80
2006,12,17,09,44,1.90
2006,12,17,09,45,1.30
2006,12,17,09,46,1.70
2006,12,17,09,47,0.00
2006,12,17,09,48,0.00
2006,12,17,09,49,0.30
2006,12,17,09,50,0.20
2006,12,17,09,51,1.20
2006,12,17,09,52,1.00
2006,12,17,09,53,0.80
2006,12,17,09,54,0.60
2006,12,17,09,55,2.70
2006,12,17,09,56,2.30
2006,12,17,09,57,3.90
2006,12,17,09,58,2.60
2006,12,17,09,59,2.90
2006,12,17,10,00,1.60
2006,12,17,10,01,1.90
2006,12,17,10,02,1.20
2006,12,17,10,03,2.50
2006,12,17,10,04,3.90
2006,12,17,10,05,5.40
2006,12,17,10,06,3.60
2006,12,17,10,07,3.70
2006,12,17,10,08,4.60
2006,12,17,10,09,3.80
2006,12,17,10,10,4.20
2006,12,17,10,11,2.00
2006,12,17,10,12,5.20
2006,12,17,10,13,4.10
2006,12,17,10,14,4.70
2006,12,17,10,15,3.40
2006,12,17,10,16,3.90
2006,12,17,10,17,4.10
2006,12,17,10,18,4.30
2006,12,17,10,19,7.90
2006,12,17,10,20,5.70
2006,12,17,10,21,4.20
2006,12,17,10,22,5.90
2006,12,17,10,23,5.90
2006,12,17,10,24,4.10
2006,12,17,10,25,4.20
2006,12,17,10,26,2.80
2006,12,17,10,27,2.30
2006,12,17,10,28,4.80
2006,12,17,10,29,3.80
2006,12,17,10,30,4.50
2006,12,17,10,31,6.40
2006,12,17,10,32,6.60
2006,12,17,10,33,5.20
2006,12,17,10,34,5.50
2006,12,17,10,35,7.10
2006,12,17,10,36,5.00
2006,12,17,10,37,6.40
2006,12,17,10,38,5.70
2006,12,17,10,39,3.60
2006,12,17,10,40,5.00
2006,12,17,10,41,5.40
2006,12,17,10,42,4.20
2006,12,17,10,43,4.00
2006,12,17,10,44,2.70
2006,12,17,10,45,4.10
2006,12,17,10,46,3.60
2006,12,17,10,47,3.60
2006,12,17,10,48,3.30
2006,12,17,10,49,5.30
2006,12,17,10,50,2.30
2006,12,17,10,51,3.80
2006,12,17,10,52,2.40
2006,12,17,10,53,2.70
2006,12,17,10,54,3.40
2006,12,17,10,55,3.70
2006,12,17,10,56,2.80
2006,12,17,10,57,4.50
2006,12,17,10,58,4.20
2006,12,17,10,59,6.70
2006,12,17,11,00,5.20
2006,12,17,11,01,1.50
2006,12,17,11,02,0.40
2006,12,17,11,03,1.70
2006,12,17,11,04,1.00
2006,12,17,11,05,1.70
2006,12,17,11,06,3.70
2006,12,17,11,07,0.70
2006,12,17,11,08,1.20
2006,12,17,11,09,1.30
2006,12,17,11,10,3.00
2006,12,17,11,11,3.20
2006,12,17,11,12,3.60
2006,12,17,11,13,0.40
2006,12,17,11,14,0.00
2006,12,17,11,15,0.70
2006,12,17,11,16,0.80
2006,12,17,11,17,0.10
2006,12,17,11,18,0.00
2006,12,17,11,19,2.40
2006,12,17,11,20,3.60
2006,12,17,11,21,2.10
2006,12,17,11,22,2.40
2006,12,17,11,23,2.90
2006,12,17,11,24,1.10
2006,12,17,11,25,0.10
2006,12,17,11,26,1.70
2006,12,17,11,27,0.10
2006,12,17,11,28,0.00
2006,12,17,11,29,1.20
2006,12,17,11,30,3.20
2006,12,17,11,31,2.00
2006,12,17,11,32,1.20
2006,12,17,11,33,1.60
2006,12,17,11,34,3.90
2006,12,17,11,35,3.50
2006,12,17,11,36,1.10
2006,12,17,11,37,1.60
2006,12,17,11,38,1.00
2006,12,17,11,39,2.90
2006,12,17,11,40,3.20
2006,12,17,11,41,2.10
2006,12,17,11,42,4.70
2006,12,17,11,43,2.90
2006,12,17,11,44,0.80
2006,12,17,11,45,3.00
2006,12,17,11,46,4.40
2006,12,17,11,47,1.80
2006,12,17,11,48,3.30
2006,12,17,11,49,0.70
2006,12,17,11,50,1.80
2006,12,17,11,51,3.40
2006,12,17,11,52,5.90
2006,12,17,11,53,3.80
2006,12,17,11,54,3.80
2006,12,17,11,55,4.10
2006,12,17,11,56,4.70
2006,12,17,11,57,5.00
2006,12,17,11,58,5.10
2006,12,17,11,59,5.70
2006,12,17,12,00,6.00
2006,12,17,12,01,3.20
2006,12,17,12,02,2.40
2006,12,17,12,03,3.20
2006,12,17,12,04,2.80
2006,12,17,12,05,0.30
2006,12,17,12,06,0.30
2006,12,17,12,07,0.00
2006,12,17,12,08,0.00
2006,12,17,12,09,2.30
2006,12,17,12,10,2.20
2006,12,17,12,11,2.80
2006,12,17,12,12,3.30
2006,12,17,12,13,2.80
2006,12,17,12,14,4.10
2006,12,17,12,15,0.50
2006,12,17,12,16,2.40
2006,12,17,12,17,3.90
2006,12,17,12,18,4.80
2006,12,17,12,19,4.30
2006,12,17,12,20,3.40
2006,12,17,12,21,3.10
2006,12,17,12,22,3.70
2006,12,17,12,23,2.70
2006,12,17,12,24,2.40
2006,12,17,12,25,1.40
2006,12,17,12,26,1.30
2006,12,17,12,27,0.50
2006,12,17,12,28,0.10
2006,12,17,12,29,0.00
2006,12,17,12,30,0.00
2006,12,17,12,31,0.20
2006,12,17,12,32,0.40
2006,12,17,12,33,0.00
2006,12,17,12,34,0.30
2006,12,17,12,35,1.50
2006,12,17,12,36,0.00
2006,12,17,12,37,1.00
2006,12,17,12,38,0.60
2006,12,17,12,39,0.00
2006,12,17,12,40,0.10
2006,12,17,12,41,0.30
2006,12,17,12,42,0.80
2006,12,17,12,43,0.60
2006,12,17,12,44,2.50
2006,12,17,12,45,1.80
2006,12,17,12,46,0.90
2006,12,17,12,47,1.90
2006,12,17,12,48,1.30
2006,12,17,12,49,1.80
2006,12,17,12,50,2.10
2006,12,17,12,51,2.00
2006,12,17,12,52,1.70
2006,12,17,12,53,0.80
2006,12,17,12,54,0.80
2006,12,17,12,55,0.70
2006,12,17,12,56,0.40
2006,12,17,12,57,1.20
2006,12,17,12,58,0.20
2006,12,17,12,59,1.70
2006,12,17,13,00,1.60
2006,12,17,13,01,1.20
2006,12,17,13,02,0.20
2006,12,17,13,03,0.10
2006,12,17,13,04,1.60
2006,12,17,13,05,0.80
2006,12,17,13,06,1.50
2006,12,17,13,07,0.40
2006,12,17,13,08,2.00
2006,12,17,13,09,0.10
2006,12,17,13,10,0.30
2006,12,17,13,11,0.40
2006,12,17,13,12,2.00
2006,12,17,13,13,2.10
2006,12,17,13,14,1.90
2006,12,17,13,15,1.50
2006,12,17,13,16,3.90
2006,12,17,13,17,1.30
2006,12,17,13,18,1.90
2006,12,17,13,19,2.30
2006,12,17,13,20,4.30
2006,12,17,13,21,2.90
2006,12,17,13,22,4.00
2006,12,17,13,23,0.80
2006,12,17,13,24,1.30
2006,12,17,13,25,1.70
2006,12,17,13,26,2.90
2006,12,17,13,27,2.60
2006,12,17,13,28,3.00
2006,12,17,13,29,1.10
2006,12,17,13,30,0.70
2006,12,17,13,31,0.00
2006,12,17,13,32,0.00
2006,12,17,13,33,3.10
2006,12,17,13,34,1.20
2006,12,17,13,35,2.80
2006,12,17,13,36,2.80
2006,12,17,13,37,2.40
2006,12,17,13,38,0.40
2006,12,17,13,39,1.70
2006,12,17,13,40,1.30
2006,12,17,13,41,0.80
2006,12,17,13,42,3.70
2006,12,17,13,43,2.20
2006,12,17,13,44,0.20
2006,12,17,13,45,1.90
2006,12,17,13,46,3.20
2006,12,17,13,47,2.80
2006,12,17,13,48,1.60
2006,12,17,13,49,1.00
2006,12,17,13,50,3.40
2006,12,17,13,51,1.30
2006,12,17,13,52,1.00
2006,12,17,13,53,0.20
2006,12,17,13,54,2.60
2006,12,17,13,55,0.80
2006,12,17,13,56,1.40
2006,12,17,13,57,1.80
2006,12,17,13,58,2.60
2006,12,17,13,59,4.40
2006,12,17,14,00,2.10
2006,12,17,14,01,2.00
2006,12,17,14,02,4.00
2006,12,17,14,03,4.80
2006,12,17,14,04,4.70
2006,12,17,14,05,1.30
2006,12,17,14,06,0.50
2006,12,17,14,07,0.90
2006,12,17,14,08,2.10
2006,12,17,14,09,0.20
2006,12,17,14,10,0.00
2006,12,17,14,11,1.30
2006,12,17,14,12,1.30
2006,12,17,14,13,0.10
2006,12,17,14,14,1.30
2006,12,17,14,15,1.60
2006,12,17,14,16,2.00
2006,12,17,14,17,0.70
2006,12,17,14,18,2.50
2006,12,17,14,19,1.60
2006,12,17,14,20,3.10
2006,12,17,14,21,1.70
2006,12,17,14,22,0.80
2006,12,17,14,23,0.00
2006,12,17,14,24,0.40
2006,12,17,14,25,0.20
2006,12,17,14,26,0.10
2006,12,17,14,27,0.00
2006,12,17,14,28,1.20
2006,12,17,14,29,1.80
2006,12,17,14,30,1.10
2006,12,17,14,31,1.00
2006,12,17,14,32,1.80
2006,12,17,14,33,1.60
2006,12,17,14,34,1.60
2006,12,17,14,35,1.30
2006,12,17,14,36,0.00
2006,12,17,14,37,0.10
2006,12,17,14,38,0.10
2006,12,17,14,39,0.00
2006,12,17,14,40,0.00
2006,12,17,14,41,0.00
2006,12,17,14,42,0.00
2006,12,17,14,43,0.00
2006,12,17,14,44,0.00
2006,12,17,14,45,0.00
2006,12,17,14,46,0.00
2006,12,17,14,47,0.00
2006,12,17,14,48,0.00
2006,12,17,14,49,0.00
2006,12,17,14,50,0.00
2006,12,17,14,51,0.00
2006,12,17,14,52,0.00
2006,12,17,14,53,0.00
2006,12,17,14,54,0.00
2006,12,17,14,55,0.00
2006,12,17,14,56,0.00
2006,12,17,14,57,0.10
2006,12,17,14,58,0.10
2006,12,17,14,59,0.60
2006,12,17,15,00,0.10
2006,12,17,15,01,0.10
2006,12,17,15,02,0.00
2006,12,17,15,03,0.00
2006,12,17,15,04,0.10
2006,12,17,15,05,0.10
2006,12,17,15,06,0.00
2006,12,17,15,07,0.10
2006,12,17,15,08,1.50
2006,12,17,15,09,0.70
2006,12,17,15,10,0.40
2006,12,17,15,11,0.10
2006,12,17,15,12,0.80
2006,12,17,15,13,0.30
2006,12,17,15,14,0.00
2006,12,17,15,15,0.00
2006,12,17,15,16,0.00
2006,12,17,15,17,0.00
2006,12,17,15,18,0.80
2006,12,17,15,19,0.50
2006,12,17,15,20,0.10
2006,12,17,15,21,0.00
2006,12,17,15,22,1.60
2006,12,17,15,23,0.90
2006,12,17,15,24,0.00
2006,12,17,15,25,0.10
2006,12,17,15,26,0.00
2006,12,17,15,27,0.00
2006,12,17,15,28,0.00
2006,12,17,15,29,0.00
2006,12,17,15,30,0.00
2006,12,17,15,31,0.00
2006,12,17,15,32,0.00
2006,12,17,15,33,0.00
2006,12,17,15,34,0.00
2006,12,17,15,35,0.00
2006,12,17,15,36,0.00
2006,12,17,15,37,0.00
2006,12,17,15,38,0.00
2006,12,17,15,39,0.00
2006,12,17,15,40,0.00
2006,12,17,15,41,0.00
2006,12,17,15,42,0.00
2006,12,17,15,43,0.00
2006,12,17,15,44,0.00
2006,12,17,15,45,0.00
2006,12,17,15,46,0.00
2006,12,17,15,47,0.00
2006,12,17,15,48,0.00
2006,12,17,15,49,0.00
2006,12,17,15,50,0.00
2006,12,17,15,51,0.00
2006,12,17,15,52,0.40
2006,12,17,15,53,0.00
2006,12,17,15,54,0.00
2006,12,17,15,55,0.00
2006,12,17,15,56,0.00
2006,12,17,15,57,0.00
2006,12,17,15,58,0.00
2006,12,17,15,59,0.00
2006,12,17,16,00,0.00
2006,12,17,16,01,0.00
2006,12,17,16,02,0.80
2006,12,17,16,03,0.10
2006,12,17,16,04,0.00
2006,12,17,16,05,0.00
2006,12,17,16,06,0.40
2006,12,17,16,07,0.00
2006,12,17,16,08,0.10
2006,12,17,16,09,0.00
2006,12,17,16,10,0.00
2006,12,17,16,11,0.10
2006,12,17,16,12,0.00
2006,12,17,16,13,0.00
2006,12,17,16,14,0.00
2006,12,17,16,15,0.00
2006,12,17,16,16,0.00
2006,12,17,16,17,0.20
2006,12,17,16,18,1.10
2006,12,17,16,19,0.00
2006,12,17,16,20,0.00
2006,12,17,16,21,0.00
2006,12,17,16,22,0.10
2006,12,17,16,23,0.00
2006,12,17,16,24,0.00
2006,12,17,16,25,0.00
2006,12,17,16,26,0.10
2006,12,17,16,27,0.00
2006,12,17,16,28,0.00
2006,12,17,16,29,0.00
2006,12,17,16,30,0.00
2006,12,17,16,31,0.00
2006,12,17,16,32,0.00
2006,12,17,16,33,0.00
2006,12,17,16,34,0.00
2006,12,17,16,35,0.00
2006,12,17,16,36,0.00
2006,12,17,16,37,0.00
2006,12,17,16,38,0.00
2006,12,17,16,39,0.00
2006,12,17,16,40,0.00
2006,12,17,16,41,0.00
2006,12,17,16,42,0.00
2006,12,17,16,43,0.00
2006,12,17,16,44,0.00
2006,12,17,16,45,0.00
2006,12,17,16,46,0.00
2006,12,17,16,47,0.00
2006,12,17,16,48,0.00
2006,12,17,16,49,0.00
2006,12,17,16,50,0.00
2006,12,17,16,51,0.00
2006,12,17,16,52,0.00
2006,12,17,16,53,0.00
2006,12,17,16,54,0.00
2006,12,17,16,55,0.10
2006,12,17,16,56,0.10
2006,12,17,16,57,0.10
2006,12,17,16,58,0.10
2006,12,17,16,59,1.00
2006,12,17,17,00,0.30
2006,12,17,17,01,0.20
2006,12,17,17,02,0.60
2006,12,17,17,03,1.30
2006,12,17,17,04,1.40
2006,12,17,17,05,1.70
2006,12,17,17,06,1.70
2006,12,17,17,07,1.60
2006,12,17,17,08,1.40
2006,12,17,17,09,1.70
2006,12,17,17,10,0.60
2006,12,17,17,11,1.20
2006,12,17,17,12,1.50
2006,12,17,17,13,1.20
2006,12,17,17,14,0.40
2006,12,17,17,15,0.10
2006,12,17,17,16,0.90
2006,12,17,17,17,1.40
2006,12,17,17,18,1.50
2006,12,17,17,19,2.00
2006,12,17,17,20,1.40
2006,12,17,17,21,1.10
2006,12,17,17,22,1.40
2006,12,17,17,23,0.00
2006,12,17,17,24,0.50
2006,12,17,17,25,0.00
2006,12,17,17,26,0.10
2006,12,17,17,27,0.10
2006,12,17,17,28,0.10
2006,12,17,17,29,2.30
2006,12,17,17,30,1.10
2006,12,17,17,31,1.20
2006,12,17,17,32,1.80
2006,12,17,17,33,2.20
2006,12,17,17,34,1.10
2006,12,17,17,35,0.20
2006,12,17,17,36,1.10
2006,12,17,17,37,1.10
2006,12,17,17,38,0.00
2006,12,17,17,39,0.10
2006,12,17,17,40,1.20
2006,12,17,17,41,0.50
2006,12,17,17,42,1.50
2006,12,17,17,43,1.60
2006,12,17,17,44,1.60
2006,12,17,17,45,1.60
2006,12,17,17,46,1.90
2006,12,17,17,47,1.80
2006,12,17,17,48,1.80
2006,12,17,17,49,2.10
2006,12,17,17,50,1.80
2006,12,17,17,51,0.70
2006,12,17,17,52,0.00
2006,12,17,17,53,0.00
2006,12,17,17,54,0.10
2006,12,17,17,55,0.00
2006,12,17,17,56,0.10
2006,12,17,17,57,0.00
2006,12,17,17,58,0.00
2006,12,17,17,59,0.00
2006,12,17,18,00,0.00
2006,12,17,18,01,0.30
2006,12,17,18,02,1.00
2006,12,17,18,03,0.80
2006,12,17,18,04,0.00
2006,12,17,18,05,0.80
2006,12,17,18,06,1.90